Regional Weather Roundup
Issued by NWS Raleigh/Durham, NC

Home | Current Version | Previous Version | Text Only | Print | Product List | Glossary On
Versions: 1 2 3 4 5 6 7 8 9 10 11 12 13 14 15 16 17 18 19 20 21 22 23 24 25 26 27 28 29 30 31 32 33 34 35 36 37 38 39 40 41 42 43 44 45 46 47 48 49 50
000
ASUS42 KRAH 210410
RWRRAH
NORTH CAROLINA WEATHER ROUNDUP
NATIONAL WEATHER SERVICE RALEIGH NC
1100 PM EST SAT DEC 20 2014

NOTE: "FAIR" INDICATES FEW OR NO CLOUDS BELOW 12,000 FEET WITH NO
SIGNIFICANT WEATHER AND/OR OBSTRUCTIONS TO VISIBILITY.

NCZ001-053-055-056-065-067-210500-
WESTERN NORTH CAROLINA

CITY           SKY/WX    TMP DP  RH WIND       PRES   REMARKS
ASHEVILLE      CLOUDY    39  37  92 S5        30.21R
JEFFERSON      CLOUDY    34  33  97 CALM      30.17R FOG
MORGANTON      CLOUDY    41  35  79 CALM      30.27S
HICKORY        CLOUDY    41  34  76 NE3       30.23S
RUTHERFORDTON  CLOUDY    41  39  91 CALM      30.25R
MOUNT AIRY     CLOUDY    39  33  76 CALM      30.25S
BOONE          CLOUDY    35  34  96 CALM      30.17S
$$

NCZ021-022-025-041-071-084-088-210500-
CENTRAL NORTH CAROLINA

CITY           SKY/WX    TMP DP  RH WIND       PRES   REMARKS
CHARLOTTE      CLOUDY    42  34  73 SE6       30.26R
GREENSBORO     CLOUDY    38  34  85 CALM      30.25R
WINSTON-SALEM  CLOUDY    38  33  82 CALM      30.26S
RALEIGH-DURHAM CLOUDY    38  34  85 CALM      30.28S FOG
FORT BRAGG     NOT AVBL
FAYETTEVILLE   CLOUDY    38  37  97 N3        30.28S FOG
BURLINGTON     CLOUDY    37  33  85 CALM      30.27R
LAURINBURG     CLOUDY    39  36  89 NE7       30.28S WCI  34
$$

NCZ011-015-027-028-043-044-047-080-103-210500-
NORTHEASTERN NORTH CAROLINA

CITY           SKY/WX    TMP DP  RH WIND       PRES   REMARKS
ROCKY MT-WILSO MOCLDY    36  34  92 CALM      30.29S
GREENVILLE     CLOUDY    39  36  87 CALM      30.29S
WASHINGTON     CLOUDY    39  34  81 N3        30.29S
ELIZABETH CITY CLEAR     39  31  72 N6        30.29F WCI  35
MANTEO         CLEAR     39  33  80 N7        30.27F WCI  34
CAPE HATTERAS  CLEAR     42  37  82 VRB3      30.26F
$$

NCZ078-087-090-091-093-098-101-210500-
SOUTHEASTERN NORTH CAROLINA

CITY           SKY/WX    TMP DP  RH WIND       PRES   REMARKS
LUMBERTON      MOCLDY    41  37  86 NE7       30.26F
GOLDSBORO      PTCLDY    37  36  98 CALM      30.27
KINSTON        PTCLDY    38  37  92 CALM      30.28F
KENANSVILLE    CLEAR     32  32 100 CALM      30.29S FOG
NEW BERN       CLEAR     39  34  82 CALM      30.29S
CHERRY POINT   FAIR      39  35  86 N6        30.28F WCI  35
BEAUFORT       CLOUDY    40  37  89 NE5       30.27S
JACKSONVILLE   PTCLDY    37  35  92 N5        30.27S WCI  33
WILMINGTON     CLOUDY    39  37  92 NE7       30.26F WCI  34
$$



USA.gov is the U.S. government's official web portal to all federal, state and local government web resources and services.